SCP
0 0 0 0 0 0 0 0 0 0 0 0 0 -0 -0 -0 -0 -0 -0 -0 0 -0 -0 -0 -0 0 0 0 0 0 0 0 0 0 0 0 0 0 0 0 0 0 0 0
0 0 0 0 0 0 0 0 0 0 0 0 0 0 -0 -0 -0 -0 -0 -0 -0 -0 -0 -0 -0 0 0 0 0 0 0 0 0 0 0 0 0 0 0 0 0 0 0 0
0 0 0 0 0 0 0 0 0 0 0 0 0 0 0 -0 -0 -0 -0 -0 -0 -0 -0 -0 -0 0 0 0 0 0 0 0 0 0 0 0 0 0 0 0 0 0 0 0
0 0 0 0 0 0 0 0 0 0 0 0 0 0 0 -0 -0 -0 -0 -0 -0 -0 -0 -0 -0 -0 -0 0 0 0 0 0 0 0 0 0 0 0 0 0 0 0 0 0
0 0 0 0 0 0 0 0 0 0 0 0 0 0 0 -0 -0 -0 -0 -0 -0 -0 -0 -0 -0 -0 -0 0 0 0 0 0 0 0 0 0 0 0 0 0 0 0 0 0
0 0 0 0 0 0 0 0 0 0 0 0 0 0 0 0 0 -0 -0 -0 -0 -0 -0 -0 -0 -0 -0 0 0 0 0 0 0 0 0 0 0 0 0 0 0 0 0 0
0 0 0 0 0 0 0 0 0 0 0 0 0 0 0 0 0 0 -0 -0 -0 -0 -0 -0 -0 -0 -0 0 0 0 0 0 0 0 0 0 0 0 0 0 0 0 0 0
0 0 0 0 0 0 0 0 0 0 0 0 0 0 0 0 0 0 -0 -0 -0 -0 -0 -0 -0 -0 -0 0 0 0 0 0 0 0 0 0 0 0 0 0 0 0 0 0
0 0 0 0 0 0 0 0 0 0 0 0 0 0 0 0 0 0 0 0 0 0 -0 -0 -0 -0 -0 -0 -0 0 0 0 0 0 0 0 0 0 0 0 0 0 0 0
0 0 0 0 0 0 0 0 0 0 0 0 0 0 0 0 0 0 0 0 0 0 0 0 0 -0 -0 -0 -0 0 0 0 0 0 0 0 0 0 0 0 0 0 0 0
0 0 0 0 0 0 0 0 0 0 0 0 0 0 0 0 0 0 0 0 0 0 0 0 0 0 0 -0 -0 0 0 0 0 0 0 0 0 0 0 0 0 0 -0 0
0 0 0 0 0 0 0 0 0 0 0 0 0 0 0 0 0 0 0 0 0 0 0 0 0 0 0 0 0 0 0 0 0 0 0 0 0 0 0 0 0 0 -0 0
0 0 0 0 0 0 0 0 0 0 0 0 0 0 -0 -0 -0 0 0 0 0 0 0 0 0 0 0 0 0 0 0 0 0 0 0 0 0 0 0 0 0 0 0 0
0 0 0 0 0 0 0 0 0 0 0 0 0 0 0 0 0 0 0 0 0 0 0 0 0 0 0 0 0 0 0 0 0 0 0 0 0 0 0 0 0 0 0 0
0 0 0 0 0 0 0 0 0 0 0 0 0 0 0 0 0 0 0 0 0 0 0 0 0 0 0 0 0 0 0 0 0 0 0 0 0 0 0 0 0 0 0 0
0 0 0 0 0 0 0 0 0 0 0 0 0 0 0 0 0 0 0 0 0 0 0 0 0 0 0 0 0 0 0 0 0 0 0 0 0 0 0 0 0 0 0 0
0 0 0 0 0 0 0 0 0 0 0 0 0 0 0 0 0 0 0 0 0 0 0 0 0 0 0 0 0 0 0 0 0 0 0 0 0 0 0 0 0 0 0 0
0 0 0 0 0 0 0 0 0 0 0 0 0 0 0 0 0 0 0 0 0 0 0 0 0 0 0 0 0 0 0 0 0 0 0 0 0 0 0 0 0 0 0 0
0 0 0 0 0 0 -0 -0 0 0 0 0 0 0 0 0 0 0 0 0 0 0 0 0 0 0 0 0 0 0 0 0 0 0 0 0 0 0 0 0 0 0 0 0
0 0 0 0 0 0 -0 -0 0 0 0 0 0 0 0 0 0 0 0 0 0 0 0 0 0 0 0 0 0 0 0 0 0 0 0 0 0 0 0 0 0 0 0 0
0 0 0 0 0 -0 -0 -0 0 0 0 0 0 0 0 0 0 0 0 0 0 0 0 0 0 0 0 0 0 0 0 0 0 0 0 0 0 0 0 0 0 0 0 0
0 0 0 0 0 0 0 0 0 0 0 0 0 0 0 0 0 0 0 0 0 0 0 0 0 0 0 0 0 0 0 0 0 0 0 0 0 0 0 0 0 0 0 0
0 0 0 0 0 0 0 0 0 0 0 0 0 0 0 0 0 0 0 0 0 0 0 0 0 0 0 0 0 0 0 0 0 0 0 0 0 0 0 0 0 0 0 0
0 0 0 0 0 0 0 0 0 0 0 0 0 0 0 0 0 0 0 0 0 0 0 0 0 0 0 0 0 0 0 0 0 0 0 0 0 0 0 0 0 0 0 0
0 0 0 0 0 0 0 0 0 0 0 0 0 0 0 0 0 0 0 0 0 0 0 0 0 0 0 0 0 0 0 0 0 0 0 0 0 0 0 0 0 0 0 0
0 0 0 0 0 0 0 0 0 0 0 0 0 0 0 0 0 0 0 0 0 0 0 0 0 0 0 0 0 0 0 0 0 0 0 0 0 0 0 0 0 0 0 0
Wind_Speed
2 4 1 4 4 4 2 3 3 2 3 6 7 5 2 3 5 4 2 3 3 2 2 3 4 4 4 4 4 4 4 3 3 2 2 2 1 0 1 1 0 1 1 2
4 1 5 3 2 2 2 3 4 3 4 6 7 5 2 3 3 3 3 3 2 2 4 4 4 4 4 3 3 3 3 3 2 2 1 2 1 0 0 1 1 1 1 1
3 4 3 3 3 3 2 6 6 5 4 5 6 5 3 2 2 2 2 2 2 3 3 3 4 4 4 3 3 3 3 3 2 2 2 2 3 3 2 2 2 2 1 1
2 3 2 2 3 4 2 6 8 7 6 1 3 2 3 0 2 2 2 3 2 2 3 3 4 4 3 3 3 4 4 3 3 3 3 3 2 1 1 1 1 2 2 1
2 1 3 2 2 4 3 5 7 6 5 3 2 4 3 0 1 0 1 2 2 2 3 4 3 4 3 4 4 4 5 4 4 4 4 3 2 0 1 1 2 2 2 2
2 1 2 2 2 5 7 9 8 6 5 2 2 4 3 3 5 4 2 2 3 3 3 3 3 4 4 4 5 5 5 4 3 4 4 3 2 2 2 2 2 2 2 2
1 1 0 2 4 4 7 7 4 3 2 2 1 2 5 5 5 6 6 4 3 3 4 4 4 4 4 4 4 4 5 4 3 4 4 3 2 2 2 1 1 2 2 2
2 1 2 2 4 4 3 7 7 5 4 2 1 2 4 2 4 5 5 5 4 4 3 4 3 3 3 3 4 4 4 3 3 3 3 2 3 2 2 1 1 1 1 2
4 3 2 3 3 6 5 3 5 6 3 2 1 0 2 2 4 5 5 5 5 4 4 4 3 3 3 3 3 3 4 3 2 2 2 3 2 2 2 2 2 1 2 2
6 3 3 2 3 2 5 6 5 5 4 2 1 3 6 7 6 5 6 6 5 4 4 3 3 2 2 2 2 3 3 2 2 2 2 2 2 2 2 2 3 3 3 4
3 4 1 1 4 6 4 3 4 4 4 6 4 6 7 12 11 10 8 7 7 6 5 3 2 2 2 2 3 3 2 2 2 2 2 3 2 2 2 2 2 3 3 4
3 5 2 5 5 5 6 6 7 5 3 4 4 6 3 10 10 9 8 6 5 5 5 4 3 2 2 2 2 2 2 1 1 1 2 2 2 2 2 2 3 3 3 4
4 6 3 4 4 0 2 4 5 6 5 4 5 5 1 6 7 7 8 7 5 5 4 3 3 2 2 2 1 1 1 1 0 1 1 1 1 1 1 1 2 3 3 3
6 4 6 7 7 5 4 4 5 6 5 5 6 6 4 7 8 7 7 7 6 5 5 4 3 2 2 1 1 1 1 1 1 1 1 0 0 1 1 2 2 2 2 2
5 3 4 5 5 4 5 5 5 5 7 8 8 10 11 12 12 11 9 8 7 6 5 4 3 2 2 1 1 1 0 0 1 2 1 1 1 1 1 2 2 2 2 3
3 3 1 2 2 2 3 5 5 5 5 5 7 6 7 7 7 8 9 10 8 7 6 5 4 3 2 2 1 1 0 0 1 2 0 1 1 1 2 2 2 2 2 3
2 3 2 2 2 2 4 7 7 6 6 10 10 9 8 8 11 13 12 11 9 8 7 6 5 3 3 2 2 1 1 1 2 1 0 1 1 1 2 3 2 3 3 3
5 4 3 1 1 4 9 5 7 7 6 7 8 9 14 13 12 10 9 11 10 9 8 6 5 4 2 2 2 2 2 2 2 1 1 1 1 2 2 2 3 3 3 3
6 7 4 3 3 6 7 3 6 7 5 6 9 10 9 8 6 2 6 9 10 9 7 6 5 4 3 3 2 3 3 2 2 2 1 2 1 2 2 3 4 3 3 3
5 5 6 4 3 6 8 5 3 6 3 5 9 13 12 11 7 8 8 8 7 7 6 6 5 4 4 2 3 4 2 2 1 1 2 2 1 1 2 3 3 3 3 3
3 3 4 4 4 8 7 2 5 5 9 6 10 13 14 11 9 7 9 8 8 7 7 7 6 5 4 3 4 3 1 0 2 2 1 2 2 2 2 2 2 3 3 3
8 6 6 5 4 10 5 5 7 8 3 6 9 10 10 7 6 9 10 9 9 7 6 7 6 4 3 3 4 3 1 2 1 1 1 2 3 3 2 2 3 3 3 3
6 9 8 9 9 6 4 6 5 5 5 5 8 8 10 8 8 9 9 9 8 8 7 5 6 4 2 2 4 3 3 2 1 1 2 2 3 3 2 2 3 3 3 2
3 2 3 2 5 3 2 2 3 4 6 6 8 9 10 9 9 9 9 8 7 7 6 5 6 5 3 3 3 3 3 2 1 1 2 2 2 3 3 2 2 2 3 3
4 2 2 2 3 1 2 2 4 4 6 7 7 7 10 11 10 9 9 8 8 6 5 5 6 5 4 3 3 3 2 2 1 2 3 3 3 3 3 3 3 3 4 4
4 6 6 7 8 6 7 5 5 7 7 8 8 7 7 10 11 10 8 8 7 7 6 5 5 5 4 4 4 3 3 2 2 2 3 3 3 3 3 3 5 6 6 9
Wind_Direction
51 71 192 221 190 180 162 136 124 136 144 102 107 97 73 86 88 87 86 85 81 104 122 100 114 121 115 117 130 140 142 149 126 100 107 105 93 339 354 322 6 44 40 43
48 259 234 241 239 157 134 111 106 76 88 103 101 74 33 81 116 135 135 122 110 82 70 78 86 92 100 109 117 127 143 146 136 132 145 148 142 182 258 316 342 334 9 20
172 236 210 200 222 153 162 163 160 143 91 81 91 36 13 28 67 88 111 124 106 111 112 101 97 90 93 98 116 128 129 132 129 115 89 69 52 28 11 354 334 315 312 341
230 251 163 158 205 160 174 178 151 133 110 100 113 116 302 126 60 62 104 116 124 106 105 105 103 95 96 91 91 90 98 102 102 95 92 109 112 125 267 274 298 310 318 331
231 169 124 122 196 144 153 125 119 113 102 76 58 115 278 126 118 224 131 122 124 126 127 122 119 117 100 91 87 87 86 77 79 87 94 102 102 166 301 341 1 339 329 332
236 227 141 152 125 115 112 84 66 53 69 67 237 131 236 220 194 179 166 135 128 120 110 111 98 91 79 78 82 83 81 68 68 76 76 95 99 77 46 14 9 346 331 327
24 343 0 113 85 57 86 93 70 34 27 246 227 124 231 221 186 170 165 155 141 122 114 107 93 85 81 79 81 79 78 65 59 69 65 78 93 90 72 32 17 5 340 321
132 265 228 157 145 147 140 128 146 165 186 221 25 197 254 207 154 143 144 145 133 122 116 117 119 115 108 98 91 86 82 71 62 65 59 69 83 77 58 42 32 12 320 298
164 231 244 172 142 134 127 136 159 132 123 109 234 38 350 70 112 123 132 133 137 137 130 125 120 118 120 112 104 105 96 74 61 67 65 64 73 74 58 36 27 5 332 328
154 173 233 188 87 45 137 144 109 114 135 150 202 213 207 189 172 156 154 154 152 147 137 130 125 123 119 119 107 96 96 96 64 59 69 71 74 70 54 42 19 357 345 348
137 139 205 146 183 179 142 129 125 126 151 149 186 248 212 187 178 170 171 165 160 158 154 145 139 139 123 104 101 101 90 78 65 66 74 70 60 70 63 45 13 353 349 350
154 123 169 239 241 181 161 169 152 150 194 165 162 255 243 175 170 162 161 162 161 159 156 148 139 128 119 118 113 112 104 97 105 92 82 81 57 61 51 11 347 345 348 347
135 113 90 351 336 318 185 186 164 141 129 152 160 247 326 142 145 155 155 158 155 148 140 132 125 130 139 149 143 137 137 160 164 104 79 64 43 34 3 326 330 339 345 351
118 120 158 186 214 206 202 204 166 137 148 178 198 187 182 162 157 162 160 157 152 147 142 138 144 157 158 159 161 162 196 197 134 109 99 77 289 278 288 303 316 322 329 340
112 156 209 220 223 193 196 202 186 171 174 175 199 182 193 184 175 172 164 156 151 151 151 152 156 162 150 136 153 157 200 182 112 105 100 262 281 308 326 327 314 312 319 326
115 167 197 285 251 208 208 204 182 181 171 162 151 199 200 173 155 156 162 162 163 165 165 162 155 143 145 156 157 131 107 96 107 111 193 287 351 359 333 315 314 314 312 313
123 138 127 263 299 49 248 218 190 188 179 160 181 203 163 158 171 176 175 173 173 170 165 165 164 166 170 177 162 142 140 94 94 93 347 334 342 332 310 317 330 312 302 306
137 119 129 176 69 231 244 246 189 177 197 186 176 171 171 176 179 179 172 171 173 172 167 167 165 161 160 149 130 110 81 73 73 47 342 321 325 315 318 325 315 302 297 292
146 136 125 132 199 269 288 250 169 160 223 193 167 164 160 130 106 174 191 173 173 172 167 165 164 153 140 130 123 101 76 64 57 28 345 318 318 324 324 316 303 297 298 295
92 108 123 135 176 236 249 250 166 111 241 217 166 158 151 133 155 216 191 166 159 155 154 152 144 128 128 136 118 100 88 68 14 289 294 306 309 317 307 295 294 294 291 285
109 96 141 165 210 259 253 225 108 147 231 199 170 162 162 174 190 176 155 155 153 149 148 144 137 136 152 151 123 113 104 262 261 266 298 323 315 302 290 291 297 300 301 306
171 167 182 156 192 252 232 147 178 210 201 157 166 168 167 160 136 140 150 151 148 144 142 143 140 146 157 149 132 132 204 254 265 287 315 312 307 311 328 316 310 311 311 309
193 189 183 184 209 240 217 195 196 159 146 156 161 162 149 141 148 150 153 153 153 151 151 149 148 151 166 168 150 162 229 246 257 308 305 301 304 304 302 300 306 315 316 305
270 148 139 213 256 252 212 155 145 147 148 151 150 148 148 151 154 152 154 156 157 156 157 152 150 158 184 197 185 195 220 216 189 267 283 292 296 298 302 299 292 297 297 295
235 148 130 240 266 327 291 206 162 134 126 129 136 148 157 151 155 160 162 165 165 163 163 161 165 176 194 201 211 222 220 190 209 258 275 284 282 282 292 292 279 277 265 262
212 179 176 215 213 190 218 214 170 150 155 155 147 145 154 157 161 161 167 170 167 166 165 166 172 181 195 199 214 229 224 198 202 247 267 272 279 281 282 292 305 295 281 291